This is the latest recevied weather packets stored in our database for station/object SP6YY-15. If no packets are shown the sender has not sent any weather packets the latest 10 day(s).
| Time | Temp. | Humidity | Pressure | Rain* | Wind** | Luminosity | Snow |
|---|---|---|---|---|---|---|---|
| 1777583638 | 26.67° C | 17% | 997.2 hPa | - | - | - | - |
| 1777564985 | 45° C | 7% | 1014 hPa | - | - | - | - |
| 1777564684 | 46.11° C | 7% | 1013.9 hPa | - | - | - | - |
| 1777564084 | 48.33° C | 7% | 1013.7 hPa | - | - | - | - |
| 1777563784 | 49.44° C | 7% | 1014.5 hPa | - | - | - | - |
| 1777563182 | 48.89° C | 9% | 1014.6 hPa | - | - | - | - |
| 1777562882 | 49.44° C | 9% | 1014.7 hPa | - | - | - | - |
| 1777562582 | 50° C | 9% | 1014.7 hPa | - | - | - | - |
| 1777562282 | 50° C | 9% | 1014.7 hPa | - | - | - | - |
| 1777561982 | 50.56° C | 9% | 1014.7 hPa | - | - | - | - |
| 1777561682 | 51.11° C | 9% | 1014.8 hPa | - | - | - | - |
| 1777561382 | 51.67° C | 9% | 1014.7 hPa | - | - | - | - |
| 1777561081 | 52.22° C | 9% | 1014.9 hPa | - | - | - | - |
| 1777560781 | 52.22° C | 9% | 1014.9 hPa | - | - | - | - |
| 1777560588 | 52.78° C | 9% | 1015 hPa | - | - | - | - |
| 1777560481 | 52.78° C | 9% | 1015 hPa | - | - | - | - |
| 1777560181 | 53.33° C | 9% | 1015.1 hPa | - | - | - | - |
| 1777559881 | 53.33° C | 9% | 1015.1 hPa | - | - | - | - |
| 1777559581 | 53.89° C | 9% | 1015.2 hPa | - | - | - | - |
| 1777559281 | 54.44° C | 9% | 1015.2 hPa | - | - | - | - |
| 1777558981 | 54.44° C | 9% | 1015.3 hPa | - | - | - | - |
| 1777558681 | 54.44° C | 9% | 1015.3 hPa | - | - | - | - |
| 1777558381 | 54.44° C | 9% | 1015.3 hPa | - | - | - | - |
| 1777558081 | 53.89° C | 10% | 1015.4 hPa | - | - | - | - |
| 1777557780 | 53.89° C | 10% | 1015.3 hPa | - | - | - | - |
* Rain since midnight (hover to see other rain measurements)
** Current wind speed in m/s (hover to see current wind gust speed)